Location: Ffald-y-Brenin
(52.0833°N, 4.0000°W)
Time: 04:55:10
(UTC+00:00)

SL-16 R/B - Pass Details

Date: 18 February 2020
Orbit: 843 x 847 km, 71.0° (Epoch: 02 April)

Event Time Altitude Azimuth Distance (km) Brightness Sun altitude
Exits shadow 04:28:48 49° 166° (SSE) 1,079 2.6 -27.7°
Maximum altitude 04:30:03 62° 115° (ESE) 947 2.5 -27.5°
Drops below altitude 10° 04:35:40 10° 35° (NE) 2,477 5.3 -26.7°
Sets 04:38:08 0° 33° (NNE) 3,416 6.0 -26.3°
